Humidity-temperature Sensor

Selected Measurement Type: Relative Humidity

 
Relative Humidity [%]     6 entries per hour
Showing data from 5/28/2018 (00:00:00 Z) to 5/25/2018 (00:01:00 Z)
Previous Next [ Day | 3-Days | 7-Days ]
First Last
Prev [ Day | 3-Days | 7-Days ] Next
First Last

Start Time:     :
End Time:     :     
Time (in GMT) :00 :50 :40 :30 :20 :10
Previous Next [ Day | 3-Days | 7-Days ]
First Last
Prev [ Day | 3-Days | 7-Days ] Next
First Last


123 => good data
MM => data is determined as missing
-- => data not received/configured
Back to Top Back to Top
5/28/2018 00:00 to 23:10 84.18 88.27 88.20 86.44 87.00 87.38
5/27/2018 23:00 to 22:10 88.43 90.38 89.65 89.36 88.39 88.39
5/27/2018 22:00 to 21:10 88.29 87.15 87.09 87.58 88.18 89.61
5/27/2018 21:00 to 20:10 90.34 90.79 90.71 87.38 87.81 85.80
5/27/2018 20:00 to 19:10 85.59 82.61 82.26 83.92 88.02 87.17
5/27/2018 19:00 to 18:10 86.46 86.67 87.02 87.27 88.51 88.35
5/27/2018 18:00 to 17:10 89.55 90.34 89.94 89.36 89.55 88.49
5/27/2018 17:00 to 16:10 87.69 90.36 90.90 91.89 90.42 86.82
5/27/2018 16:00 to 15:10 85.39 85.82 85.12 85.24 84.41 85.14
5/27/2018 15:00 to 14:10 86.98 86.13 84.31 83.11 83.23 82.13
5/27/2018 14:00 to 13:10 80.89 81.35 80.81 82.63 82.44 80.37
5/27/2018 13:00 to 12:10 81.14 80.37 79.38 79.88 79.65 80.58
5/27/2018 12:00 to 11:10 80.41 79.23 79.48 78.55 80.29 79.42
5/27/2018 11:00 to 10:10 77.66 77.60 80.70 79.57 80.44 82.63
5/27/2018 10:00 to 9:10 80.79 77.54 77.64 76.23 77.80 77.43
5/27/2018 09:00 to 8:10 77.06 76.44 77.51 77.29 79.94 81.76
5/27/2018 08:00 to 7:10 80.70 79.32 79.75 78.82 79.09 79.01
5/27/2018 07:00 to 6:10 79.30 79.13 79.46 81.82 81.10 81.93
5/27/2018 06:00 to 5:10 82.34 82.01 78.84 77.60 78.05 77.78
5/27/2018 05:00 to 4:10 78.07 79.07 77.91 78.67 77.62 80.33
5/27/2018 04:00 to 3:10 80.97 85.74 87.29 86.84 86.01 85.45
5/27/2018 03:00 to 2:10 85.63 84.62 83.05 85.66 84.27 83.34
5/27/2018 02:00 to 1:10 85.18 89.07 87.52 81.72 81.12 83.46
5/27/2018 01:00 to 0:10 83.69 80.85 80.35 80.56 83.52 81.99
5/27/2018 00:00 to 23:10 81.84 81.93 85.45 86.53 86.50 87.50
5/26/2018 23:00 to 22:10 87.25 87.29 88.02 82.42 82.07 81.84
5/26/2018 22:00 to 21:10 81.26 82.26 83.63 84.41 85.34 89.82
5/26/2018 21:00 to 20:10 87.33 81.41 81.49 84.70 82.03 80.12
5/26/2018 20:00 to 19:10 80.27 79.38 80.68 81.47 81.41 81.37
5/26/2018 19:00 to 18:10 84.76 84.41 79.92 79.71 80.52 80.91
5/26/2018 18:00 to 17:10 80.95 80.02 79.23 78.76 81.66 81.49
5/26/2018 17:00 to 16:10 83.44 81.24 81.55 81.28 80.95 81.47
5/26/2018 16:00 to 15:10 81.43 82.24 82.40 82.07 85.34 86.96
5/26/2018 15:00 to 14:10 84.97 86.05 86.17 86.32 85.37 85.72
5/26/2018 14:00 to 13:10 87.93 88.78 83.67 83.31 83.65 82.98
5/26/2018 13:00 to 12:10 82.84 82.03 81.04 83.94 84.95 85.30
5/26/2018 12:00 to 11:10 82.49 83.13 85.10 89.09 83.09 82.36
5/26/2018 11:00 to 10:10 83.85 83.13 82.07 81.26 81.97 82.24
5/26/2018 10:00 to 9:10 82.84 86.36 86.09 86.61 88.47 83.00
5/26/2018 09:00 to 8:10 82.90 82.34 82.30 82.11 81.86 81.80
5/26/2018 08:00 to 7:10 80.66 81.66 83.05 80.73 80.00 82.53
5/26/2018 07:00 to 6:10 82.05 80.99 81.33 80.81 81.91 81.82
5/26/2018 06:00 to 5:10 83.34 81.33 80.89 80.97 79.75 78.86
5/26/2018 05:00 to 4:10 82.69 83.52 82.57 82.03 82.80 84.23
5/26/2018 04:00 to 3:10 84.27 86.09 85.12 84.58 85.08 85.51
5/26/2018 03:00 to 2:10 85.10 85.72 86.92 86.67 85.41 85.45
5/26/2018 02:00 to 1:10 81.97 78.03 79.71 78.61 78.36 78.82
5/26/2018 01:00 to 0:10 79.09 78.96 78.38 78.22 77.62 76.60
5/26/2018 00:00 to 23:10 79.28 78.20 79.36 78.76 78.63 77.49
5/25/2018 23:00 to 22:10 79.30 79.48 79.15 78.61 78.26 78.16
5/25/2018 22:00 to 21:10 79.44 80.31 80.44 81.14 80.66 82.28
5/25/2018 21:00 to 20:10 81.97 82.86 81.33 81.78 82.07 81.89
5/25/2018 20:00 to 19:10 81.45 81.26 81.02 82.42 82.53 82.11
5/25/2018 19:00 to 18:10 83.67 81.76 80.83 82.51 82.07 83.07
5/25/2018 18:00 to 17:10 81.12 81.28 81.18 81.10 79.98 80.48
5/25/2018 17:00 to 16:10 80.68 82.13 80.91 79.73 79.09 80.17
5/25/2018 16:00 to 15:10 81.39 81.55 80.00 80.08 81.04 80.91
5/25/2018 15:00 to 14:10 82.20 82.90 84.06 83.29 82.22 81.60
5/25/2018 14:00 to 13:10 83.94 81.72 81.28 80.21 80.50 80.04
5/25/2018 13:00 to 12:10 79.46 78.32 79.57 78.88 78.43 79.59
5/25/2018 12:00 to 11:10 78.76 80.04 79.73 81.41 80.54 78.67
5/25/2018 11:00 to 10:10 80.66 79.13 80.02 79.13 80.48 79.23
5/25/2018 10:00 to 9:10 80.10 80.70 83.09 82.71 82.24 81.82
5/25/2018 09:00 to 8:10 82.92 81.91 81.66 81.80 81.39 80.31
5/25/2018 08:00 to 7:10 80.91 79.65 79.25 80.33 81.55 82.44
5/25/2018 07:00 to 6:10 85.63 83.36 84.93 84.02 83.52 85.16
5/25/2018 06:00 to 5:10 87.48 85.63 85.66 80.48 81.86 81.78
5/25/2018 05:00 to 4:10 81.99 82.47 81.22 81.16 80.95 81.14
5/25/2018 04:00 to 3:10 80.44 80.19 81.02 79.40 80.81 81.82
5/25/2018 03:00 to 2:10 81.39 81.24 81.18 81.78 82.73 82.28
5/25/2018 02:00 to 1:10 81.20 81.51 82.71 82.55 81.14 80.44
5/25/2018 01:00 to 0:10 80.97 81.60 79.21 77.47 77.41 77.93